GFSFLT2_prec_radar_078.txt.gz
Reflectivity
-17 -19 -20 -20 1 1 -1 -11 16 9 -12 -8 -20 -20 -20 -4 -20 -10 -20 -20 7 -13 11 9 1 8 -20
-20 -19 -18 -0 7 -5 -15 -12 0 5 -20 -20 -16 -20 -4 -19 -20 -20 -2 8 -20 -4 6 12 17 19 -16
-20 -20 -20 -18 -5 0 -1 -1 -19 16 8 -19 -16 -9 7 -6 -7 6 -12 -20 -20 -13 8 19 -15 13 19
-20 -20 -20 -14 -5 7 10 10 -12 0 11 -20 -20 -20 -20 -20 -17 -20 -20 -20 -20 -20 2 10 16 15 16
-20 -18 -13 2 9 8 -9 11 1 -6 -20 -20 -20 -20 -20 -20 -20 -20 -20 -20 -20 -20 -20 -16 -3 8 8
-20 -13 9 11 18 14 -14 -13 -20 -20 -20 -20 -20 -20 -20 -20 -20 -20 -20 -20 -20 -20 -20 -20 -20 -20 -20
-20 -20 -20 5 -20 -20 -20 -20 -20 -20 -20 -20 -20 -20 -20 -20 -20 -20 -20 -20 -20 -20 -20 -20 -20 -20 -20
-20 -20 -20 -20 -20 -20 -20 -20 -20 -20 -20 -19 -20 -20 -20 -20 -20 -20 -20 -20 -20 -20 -20 -20 -20 -20 -20
-20 -20 -18 -3 4 -20 -20 -20 -19 -3 -11 -20 -20 -11 -20 -20 -20 -20 -20 -20 -20 -20 -20 -20 -20 -20 -20
-20 -20 -20 -20 -20 -20 -20 -20 -20 -20 -20 -20 -9 -3 -20 -19 -5 -20 -20 -20 -20 -20 -20 -20 -20 -17 -20
-20 -20 -20 -20 -20 -20 -20 -20 -20 -20 -16 -20 -20 -20 -20 -14 -20 -18 -11 -19 -12 -16 -18 -20 -20 -20 -20
-20 -20 -20 -20 -20 -20 -20 -20 -20 -12 -20 -19 -20 -20 -20 -20 -20 -20 -20 -18 -20 -20 -20 -20 -20 -20 -20
-20 -20 -20 -20 -20 -20 -20 -20 -20 -20 -20 -20 -20 -20 -20 -20 -20 -20 -20 -20 -20 -20 -20 -20 -20 -20 -20
-20 -20 -20 -20 -20 -20 -20 -20 -20 -20 -20 -20 -20 -20 -20 -20 -20 -20 -20 -20 -20 -20 -20 -20 -20 -20 -20
-20 -20 -20 -20 -20 -20 -20 -20 -20 -20 -20 -20 -20 -20 -20 -20 -20 -20 -20 -20 -20 -20 -20 -20 -20 -20 -20
-20 -20 -20 -20 -20 -20 -20 -20 -20 -20 -20 -20 -20 -20 -20 -20 -20 -20 -20 -20 -20 -20 -20 -20 -20 -20 -20
-20 -20 -20 -20 -20 -20 -20 -20 -20 -20 -20 -20 -20 -20 -20 -20 -20 -20 -20 -20 -20 -20 -20 -20 -20 -20 -20

GFSFLT2_prec_radar_081.txt.gz
Reflectivity
-19 -19 -16 -18 -20 -20 -20 -16 -20 7 -18 11 -2 -20 4 11 -12 -19 -20 -13 16 5 -13 -5 -4 -14 -20
-20 -20 -20 -20 -20 -20 -16 -3 -8 14 -7 16 -0 -20 -19 -20 -20 -20 -17 -4 13 -0 -8 6 16 20 -20
-20 -20 -20 -11 -20 -19 -6 -5 3 17 7 -9 -5 -20 -20 -20 -20 -20 -19 -20 -20 -19 13 13 23 14 20
-20 -20 -20 -20 -20 -20 -20 -20 -14 5 14 -5 -5 -20 -20 -20 -20 -20 -16 -8 -10 4 12 13 12 10 16
-20 -20 -20 -20 -20 -20 -20 2 9 0 -19 -19 -18 -20 -20 -20 -20 -20 -20 -16 -20 -20 -20 -14 -4 16 15
-20 -20 -20 -20 -20 -20 -1 17 -5 -20 -20 -20 -20 -20 -20 -20 -20 -20 -20 -20 -20 -20 -20 -20 -20 -9 9
-20 -20 -20 -20 -20 -20 1 -10 7 -19 -20 -20 -20 -20 -20 -20 -20 -20 -20 -20 -16 -4 -13 -20 -20 -20 -20
-20 -20 -20 -20 -20 -20 -6 -13 -18 -20 -20 -20 -20 -20 -20 -20 -20 -12 4 -20 -20 -20 -20 -20 -20 -20 -20
-11 -20 -16 8 4 -13 -19 -20 -20 -20 -20 -20 -20 -20 -20 -19 -10 -7 -20 -20 -18 -20 -20 -20 -20 -20 -20
-20 -20 -20 -20 -20 -20 -20 -20 -20 -20 -20 -20 -20 -20 -10 -20 -20 -20 -20 -20 -15 -19 -20 -20 -20 -20 -20
-20 -20 -20 -20 -20 -20 -20 -20 -20 -20 -20 -20 -20 -20 -20 -20 -20 -20 -20 -20 -20 -20 -20 -20 -20 -20 -20
-20 -20 -20 -20 -20 -20 -20 -20 -20 -20 -20 -20 -20 -20 -20 -20 -20 -20 -20 -20 -20 -20 -13 -19 -19 -20 -20
-20 -20 -20 -20 -20 -20 -20 -20 -20 -20 -20 -20 -20 -20 -20 -20 -20 -20 -20 -20 -20 -20 -20 -20 -20 -20 -20
-20 -20 -20 -20 -20 -20 -20 -20 -20 -20 -20 -20 -20 -20 -20 -20 -20 -20 -20 -20 -20 -20 -20 -20 -20 -20 -20
-20 -20 -20 -20 -20 -20 -20 -20 -20 -20 -20 -20 -20 -20 -20 -20 -20 -20 -20 -20 -20 -20 -20 -20 -20 -20 -20
-20 -20 -20 -20 -20 -20 -20 -20 -20 -20 -20 -20 -20 -20 -20 -20 -20 -20 -20 -20 -20 -20 -20 -20 -20 -20 -20
-20 -20 -20 -20 -20 -20 -20 -20 -20 -20 -20 -20 -20 -20 -20 -20 -20 -20 -20 -20 -20 -20 -20 -20 -20 -20 -20

GFSFLT2_prec_radar_087.txt.gz
Reflectivity
-17 -19 -20 -20 -20 -19 -20 -20 -9 12 -11 -20 -0 6 0 6 13 4 4 -2 -20 -20 -11 10 -10 -6 -20
-20 -20 -20 -20 -20 -20 -20 -20 -17 -20 -20 -20 3 6 8 8 -6 -20 -20 -20 -20 -20 -20 -20 2 8 -20
-20 -20 -20 -20 -13 -20 -20 -20 -20 4 -17 8 -18 -15 8 11 -12 -20 -20 -20 -20 -20 -20 -16 -9 16 8
-20 -20 -20 -20 -20 -20 -20 -20 -20 -20 0 -8 -13 9 5 4 -20 -20 -20 -20 -20 -20 -20 -20 -5 20 15
-20 -20 -20 -20 -20 -20 -20 -20 -20 -20 -20 -20 -19 -13 -3 8 -18 -20 -20 -20 -20 -20 -20 -20 4 23 25
-20 -20 -20 -20 -20 -20 -20 -20 -20 -20 -20 -20 -8 -12 -7 -20 -20 -20 -20 -20 -20 -20 -20 -20 -20 11 25
-20 -20 -20 -20 -19 -19 -20 -20 -20 -20 -20 -20 -4 -10 -20 -20 -20 -20 -20 -20 -20 -20 -20 -20 -20 -20 -2
-20 -20 -20 -20 -9 -19 -20 -20 -20 -20 -16 -20 -20 -20 -20 -20 -20 -20 -20 -20 -20 -20 -20 -20 -20 -20 -15
-20 -20 1 9 -20 -20 -20 -20 -20 -19 -19 -20 -20 -20 -20 -20 -20 -20 -20 -20 -20 -18 -20 -20 -20 -20 -20
-20 -20 -20 -20 -20 -20 -20 -20 -20 -20 -20 -20 -20 -20 -20 -20 -20 -20 -20 -20 -11 -20 -20 -20 -20 -20 -20
-20 -20 -20 -20 -20 -20 -20 -20 -20 -20 -20 -20 -20 -20 -20 -20 -20 -20 -20 -20 -14 -20 -20 -20 -20 -20 -20
-20 -20 -20 -20 -20 -20 -20 -20 -20 -20 -20 -20 -20 -20 -20 -20 -20 -20 -20 -20 -20 -20 -20 -20 -20 -20 -20
-20 -20 -20 -20 -20 -20 -20 -20 -20 -20 -20 -20 -20 -20 -20 -20 -20 -20 -20 -20 -20 -20 -20 -20 -20 -20 -20
-20 -20 -20 -20 -20 -20 -20 -20 -20 -20 -20 -20 -20 -20 -20 -20 -20 -20 -20 -20 -20 -20 -20 -20 -20 -20 -20
-20 -20 -12 -20 -20 -20 -20 -20 -20 -20 -20 -20 -20 -20 -20 -20 -20 -20 -20 -20 -20 -20 -20 -20 -20 -20 -20
-14 -20 -20 -20 -20 -20 -20 -20 -20 -20 -20 -20 -20 -20 -20 -20 -20 -20 -20 -20 -20 -20 -20 -20 -20 -20 -20
9 -14 -0 -11 -20 -20 -20 -20 -20 -20 -20 -20 -20 -20 -20 -20 -20 -20 -20 -20 -20 -20 -20 -20 -20 -20 -20

GFSFLT2_prec_radar_090.txt.gz
Reflectivity
10 10 4 -9 -14 -19 -14 -18 -20 -20 -20 -15 -20 -20 -10 -20 1 -20 3 -14 8 -10 -16 -8 3 8 4
-20 -20 -18 -18 -15 -20 -20 -20 -20 -20 -7 -20 -9 5 10 5 9 5 -9 -20 -20 -20 -20 -20 -20 -2 -3
-20 -20 -20 -20 -20 -20 -20 -20 -20 -0 10 1 -16 -17 2 -9 -6 -11 -2 -20 -20 -20 -20 -20 -20 -15 8
-20 -20 -20 -20 -20 -20 -20 -20 -20 -9 6 -10 -11 -20 -20 -20 -9 -1 -20 -20 -20 -20 -20 -20 -20 1 -6
-15 -20 -20 -20 -20 -20 -20 -20 -20 -20 -20 -20 -20 -20 -20 -15 -4 -13 -20 -20 -20 -20 -20 -20 -20 10 24
-20 -20 -20 -20 -20 -20 -20 -20 -20 -20 -20 -20 -20 -20 -20 -12 13 -4 -20 -20 -20 -20 -20 -20 -20 2 17
-16 -20 -20 -20 -20 -20 -20 1 -20 -20 -20 -20 -20 -20 -20 -10 -2 -20 -20 -20 -20 -20 -20 -20 -20 -20 16
-20 -20 -20 -20 -20 -20 -20 -18 -20 -20 -20 -20 -20 -20 -20 -20 -20 -20 -20 -20 -20 -20 -20 -20 -20 -20 -16
-19 -20 -20 -20 -20 -20 -20 -20 -20 -20 -20 -20 -20 -20 -20 -20 -20 -20 -20 -20 -20 4 -20 -20 -20 -20 -20
-20 -20 -20 -20 -18 -20 -20 -20 -20 -20 -20 -20 -20 -20 -20 -20 -20 -20 -20 -20 -20 -12 -20 -20 -20 -20 -20
-20 -20 -20 -20 -20 -20 -20 -20 -20 -20 -17 -20 -20 -20 -20 -20 -20 -20 -20 -20 -20 -5 -20 -20 -20 -20 -20
-20 -20 -20 -20 -20 -20 -20 -20 -20 -20 -20 -20 -20 -20 -20 -20 -20 -20 -20 -20 -20 -20 -20 -20 -20 -20 -20
-20 -20 -20 -20 -20 -20 -20 -20 -20 -20 -19 -20 -20 -20 -20 -20 -20 -20 -20 -20 -20 -20 -20 -20 -20 -20 -20
-15 -13 -18 -20 -20 -20 -20 -20 -20 -20 -20 -20 -20 -20 -20 -20 -20 -20 -20 -20 -20 -20 -20 -20 -20 -20 -20
14 26 -18 -20 -16 -20 -20 -20 -20 -20 -20 -20 -20 -20 -20 -20 -20 -20 -20 -20 -20 -20 -20 -20 -20 -20 -20
6 21 14 -20 -20 -20 -20 -20 -12 -17 -20 -20 -20 -20 -20 -20 -20 -20 -20 -20 -20 -20 -20 -20 -20 -20 -20
22 19 17 18 -8 -19 2 9 -9 -11 -20 -20 -20 -20 -20 -20 -20 -20 -20 -20 -20 -20 -20 -20 -20 -20 -20

GFSFLT2_prec_radar_093.txt.gz
Reflectivity
-15 -16 -13 6 18 12 4 -9 -20 -1 -20 -20 -20 -20 -18 -20 -5 -12 -18 -20 -20 -12 -17 -18 -20 -20 -3
5 1 -20 -20 -1 -20 -20 -20 -20 -20 -20 -20 -20 -20 -20 -20 -20 -19 2 -15 -20 -20 -20 -20 -20 -20 -8
35 -1 23 -19 -8 -19 -20 -20 -20 -20 -20 -20 -17 0 -20 -20 -20 -7 -10 -6 -17 -20 -20 -20 -20 -20 -7
-4 -19 -13 -20 -20 -20 -20 -20 -20 -20 -20 -2 8 1 -20 -20 -14 -14 -11 -18 -20 -20 -20 -20 -20 -20 -7
13 -20 -20 -20 -19 -20 -20 -20 -20 -20 -20 -20 -19 -20 -20 -20 -20 -20 -20 -20 -20 -20 -20 -20 -20 -20 1
15 14 -20 0 -9 -20 -20 -20 -20 -20 -20 -20 -20 -20 -20 -20 -20 -20 -20 -20 -20 -20 -20 -20 -20 -20 4
-11 -14 -20 -4 -20 -20 -20 -20 -20 -20 -20 -20 -20 -20 -20 -20 -20 -10 -20 -20 -20 -20 -20 -20 -20 -20 9
27 28 26 27 -17 -20 -20 -20 -20 -20 -20 -20 -20 -20 -20 -20 -20 -20 -20 -20 -20 -20 -20 -12 -20 -20 10
19 23 28 33 28 -18 -20 -20 -20 -20 -20 -20 -20 -20 -20 -20 -20 -20 -20 -20 -20 -17 -16 -16 -20 -20 -15
13 8 9 11 -3 -8 -6 -20 -20 -19 -20 -20 -20 -20 -20 -20 -20 -20 -20 -20 -19 -20 -0 -20 -20 -20 -20
-5 -19 -14 -20 -20 -20 -20 -20 -20 -20 -20 -20 -20 -20 -20 -20 -20 -20 -20 -20 -20 1 -15 -20 -20 -20 -20
-15 -8 -17 -20 -20 -20 -20 -20 -20 -20 -20 -20 -20 -20 -20 -20 -20 -20 -20 -20 -20 -20 -20 -20 -20 -20 -20
-1 -20 -20 -13 -13 -20 -20 -20 -20 -20 -5 -20 -20 -20 -20 -20 -20 -20 -20 -20 -20 -20 -20 -20 -20 -20 -20
10 -5 -5 0 -3 -19 -20 -20 -20 -20 -11 -0 -20 -20 -20 -20 -20 -20 -20 -20 -20 -20 -20 -20 -20 -20 -20
21 16 23 15 -10 -13 -20 -20 -20 -20 -20 -20 -20 -20 -20 -20 -20 -20 -20 -20 -20 -20 -20 -20 -20 -20 -20
21 29 24 20 15 2 -11 -20 -20 -20 -20 -20 -20 -20 -20 -20 -20 -20 -20 -20 -20 -20 -20 -20 -20 -20 -20
24 16 9 14 17 18 17 -11 -20 -20 -20 -20 -20 -19 -20 -20 -20 -20 -20 -20 -20 -20 -20 -20 -20 -20 -20

GFSFLT2_prec_radar_096.txt.gz
Reflectivity
24 28 -7 -3 23 22 26 29 27 14 -19 -20 -10 -20 -20 -20 -20 -20 -20 -20 -20 -20 -20 -20 -20 -20 -20
20 36 16 13 2 12 8 -3 -5 -15 -8 -7 -20 -20 -20 -17 -20 -20 -20 -20 -20 -20 -20 -20 -20 -20 -20
24 31 25 32 3 11 2 -20 -20 -20 -20 -20 -15 -20 -18 -17 -20 -20 -20 -20 -20 -20 -20 -20 -20 -20 -20
12 37 29 36 33 17 13 10 -19 -20 -20 -20 7 -20 7 8 -20 -20 -20 -20 -20 -20 -20 -20 -20 -20 -20
-3 27 35 36 21 23 26 -18 -19 -20 -20 -20 -20 -20 -17 7 -20 -20 -20 -20 -20 -20 -20 -20 -20 -20 -20
14 -6 11 25 36 15 6 8 -20 -20 -20 -20 -20 -20 -12 -3 -0 5 8 -20 -20 -20 -20 -20 -20 -20 -14
22 17 13 25 26 15 3 5 -3 -20 -20 -20 -20 -20 -20 -17 7 -13 7 -20 -20 -20 -20 -20 -20 -20 -18
-2 8 34 26 24 5 3 2 -7 4 -8 -20 -20 -20 -20 -20 -15 -20 -18 -1 -20 -20 -20 -20 -20 -20 -20
28 26 19 18 8 23 31 20 29 9 -10 -20 -20 -20 -20 -20 -20 -20 -20 -20 -20 -20 -20 -20 -20 -20 -20
1 22 33 26 34 27 26 30 31 13 18 5 -19 -20 -20 -20 -20 -20 -20 -20 -20 -20 -20 -20 -20 -20 -20
14 4 -5 14 17 23 -3 -15 -19 -14 -2 -15 -20 -20 -20 -20 -20 -20 -20 -20 -20 -20 -20 -20 -20 -20 -20
10 18 -15 -5 -8 15 -3 -11 -20 -20 -20 -20 -20 -20 -20 -20 -20 -20 -20 -20 -20 -20 -20 -20 -20 -20 -20
14 12 18 8 7 17 4 1 -20 -20 -8 -20 -20 -20 -20 -20 -20 -20 -20 -20 -20 -20 -20 -20 -20 -20 -20
16 22 23 21 18 20 16 9 -12 -19 -20 7 -16 -9 -19 -20 -20 -20 -20 -20 -20 -20 -20 -20 -20 -20 -20
26 26 27 30 23 18 16 -1 8 -19 -20 -20 -12 -13 -20 -20 -20 -20 -20 -20 -20 -20 -20 -20 -20 -20 -20
11 15 24 30 16 11 -0 -18 -19 -14 -4 -20 -7 -19 -20 -20 -20 -20 -20 -20 -20 -20 -20 -20 -20 -20 -20
23 14 14 17 14 18 18 4 7 -3 13 -11 -15 -20 -20 -20 -20 -20 -20 -20 -20 -20 -20 -20 -20 -20 -20

GFSFLT2_prec_radar_099.txt.gz
Reflectivity
32 17 20 3 5 -1 30 26 27 22 16 21 19 24 -2 -20 -20 -20 -20 -20 -20 -20 -20 -20 -20 -20 -20
17 25 25 16 21 3 23 27 24 25 23 18 -3 -20 -20 -20 -20 -20 -20 -20 -20 -20 -20 -20 -20 -20 -20
9 21 27 35 22 31 28 25 30 22 12 -8 -20 -20 -20 -20 -20 -20 -20 -20 -20 -20 -20 -20 -20 -20 -20
7 6 4 7 21 26 31 33 6 -17 3 8 11 -20 -20 1 -10 -16 -20 -20 -20 -20 -20 -20 -20 -20 -20
9 13 18 23 11 2 27 30 33 20 11 -16 -11 -17 -16 7 5 5 -2 -20 -20 -20 -20 -20 -20 -20 -20
-4 7 7 4 19 -11 26 33 34 25 17 8 -12 -20 -20 -20 5 10 -1 -20 -20 -20 -20 -20 -20 -20 -20
6 6 -20 3 12 3 -10 7 26 32 30 17 -17 -20 -20 -20 -9 10 -20 -5 2 -20 -20 -20 -20 -20 -20
11 -12 -20 -4 4 23 30 16 17 27 10 3 -15 -20 -20 -20 3 -15 -4 0 -20 -20 -20 -20 -20 -20 -20
29 29 18 27 26 17 17 31 24 10 11 -20 10 -4 -2 -15 -12 7 -20 -2 -12 -19 -20 -20 -20 -20 -18
-6 33 15 30 15 23 8 15 4 29 34 24 28 19 2 -4 -6 -5 -20 -18 -20 -20 -20 -20 -20 -20 -20
-5 17 21 35 37 18 -1 -6 -8 21 12 23 34 31 9 8 -5 -20 -20 -20 -20 -20 -20 -20 -20 -20 -20
-9 -4 31 25 29 34 22 27 26 32 22 11 23 25 9 -18 -20 -20 -20 -20 -20 -20 -20 -20 -20 -20 -20
16 11 3 32 33 39 35 35 17 28 30 4 -2 6 -2 -20 -20 -20 -20 -20 -20 -20 -20 -20 -20 -20 -20
20 10 13 21 28 35 42 31 15 18 11 -8 -20 -20 -9 -20 -20 -20 -20 -20 -20 -20 -20 -20 -20 -20 -20
28 18 24 20 18 25 36 32 17 25 -5 -7 0 -8 -20 -20 -20 -20 -20 -20 -20 -20 -20 -20 -20 -20 -20
29 28 27 32 14 22 23 31 22 15 11 4 -8 -12 -20 -18 7 -20 -20 -20 -20 -20 -20 -20 -20 -20 -20
28 30 31 31 29 10 10 27 11 18 14 5 14 -4 -15 -20 -20 -20 -20 -20 -20 -20 -20 -20 -20 -20 -20

GFSFLT2_prec_radar_105.txt.gz
Reflectivity
8 21 28 25 25 27 21 21 7 8 5 -9 -7 -5 16 31 27 32 25 17 14 -20 -20 -20 -20 -20 -20
19 21 23 27 20 24 24 19 21 17 19 8 -2 10 25 30 30 25 16 16 14 -20 -20 -20 -20 -20 -20
21 24 25 16 3 1 5 17 -3 21 4 13 13 28 34 27 24 -6 5 -12 7 -20 -20 -20 -20 -20 -20
15 14 4 -0 15 -7 -17 -2 13 11 8 17 23 23 25 28 24 7 -1 2 11 -20 -20 -20 -20 -20 -20
-20 -20 -20 8 2 -18 -19 -20 14 9 -1 -2 5 18 16 9 -18 4 -13 -20 -20 -20 -20 -20 -20 -20 -20
-15 -12 -11 -5 7 -12 -6 -14 19 16 15 30 11 -19 -16 -20 -20 -20 -20 -20 -20 -20 -20 -20 -20 -20 -20
7 2 19 1 11 -15 -18 -20 -7 16 -1 29 25 -1 -11 -13 -20 -17 -20 -20 -20 -20 -20 -20 -20 -20 -20
-20 -20 -17 2 -2 -9 5 -20 -20 2 16 25 23 32 17 5 20 17 -1 -16 -20 -20 -9 -20 -20 -20 -20
-20 -13 -4 -20 -19 -8 -15 9 -4 -5 -16 2 11 14 28 19 27 23 16 -7 8 -3 -16 6 3 -11 -20
-20 -20 -20 -20 2 -20 -12 17 14 -6 -12 3 6 2 23 28 26 28 9 15 24 -2 13 7 -7 -1 -20
-20 -20 -20 -20 -12 -8 -20 7 19 6 8 6 14 14 21 31 16 31 15 13 15 -6 -13 -20 -20 -20 -20
-20 -20 -20 -20 -19 -0 -19 -20 20 21 17 18 2 14 3 11 30 23 30 21 28 -2 -13 -20 -20 -20 -20
-6 -20 -10 4 -2 -10 -20 -20 -10 16 25 24 5 22 19 21 29 8 17 26 29 -13 12 12 8 7 6
-2 -2 4 -20 -20 -17 11 19 -4 -5 7 15 29 21 28 23 28 39 41 39 41 31 19 14 -2 -2 3
3 -1 -11 -12 -1 -17 2 -20 2 -14 4 19 24 26 37 33 36 39 41 26 24 34 26 17 14 13 -5
5 2 7 -4 -1 -7 0 -7 5 -7 -5 10 25 24 26 30 36 33 31 35 27 7 5 10 5 9 -9
3 -2 4 2 10 -15 14 6 -3 -10 13 17 26 36 24 28 24 36 29 35 31 28 13 0 13 13 -3

GFSFLT2_prec_radar_108.txt.gz
Reflectivity
23 17 23 20 24 29 26 15 17 15 18 0 8 12 20 21 23 17 21 20 35 2 16 -18 -20 -20 -20
16 30 32 30 28 24 17 6 12 17 17 11 19 8 16 19 16 18 21 25 29 21 24 1 -20 -20 -20
29 26 29 32 33 32 26 28 8 18 10 12 15 8 7 1 7 17 15 27 31 11 11 -15 -20 -20 -20
27 29 16 28 31 29 28 17 -16 -20 15 1 2 6 -20 -20 17 20 29 27 36 24 -20 -20 -20 -20 -20
-12 -15 -16 -9 9 15 11 -2 -15 -20 -20 -20 4 -10 -6 16 26 30 30 27 26 20 -16 -20 -20 -20 -20
-11 0 -20 -20 1 4 -20 -20 -20 -20 -20 -20 13 13 10 -3 25 25 17 16 13 1 -20 -20 -20 -20 -20
-20 -14 -14 -20 -20 -20 -0 15 9 -10 -20 -20 -20 1 12 13 23 21 12 13 8 -20 -14 -20 -20 -20 -20
-20 -20 -20 -20 -20 -20 -8 -4 2 11 -9 -20 -20 -13 8 10 30 29 21 21 17 0 -20 -20 -20 -20 -20
-20 -20 -20 -20 -20 -20 -20 -20 -20 -15 -3 17 -5 8 -19 -17 22 23 31 29 27 15 4 -15 -20 -20 -20
-20 -20 -20 -20 -20 -20 6 6 2 2 -20 -10 13 -15 -20 -20 -14 23 20 29 29 27 19 21 17 -19 -20
-20 -20 -20 -20 -20 -20 -20 3 9 16 8 -3 -6 9 -10 4 -16 -7 23 23 24 27 22 24 -9 11 21
-20 -20 -20 -16 -20 -14 -6 -20 -19 -8 -20 6 11 -8 4 9 6 -6 2 8 26 24 23 29 23 13 23
-20 -20 -20 -7 6 -20 -20 -20 -20 -20 -20 -20 -3 -1 -9 18 13 -7 8 14 21 19 15 28 23 22 10
-20 -20 -20 -20 12 -7 -18 -20 -1 -12 -6 7 -9 8 22 6 -12 -4 -6 6 7 18 20 31 27 33 12
-20 -14 -20 -20 -20 -20 3 -10 0 -15 -2 2 13 3 -1 22 19 10 10 9 6 10 22 28 30 35 30
-20 -20 -6 2 -3 -20 1 -11 -16 -18 -11 -17 -15 4 18 14 23 14 8 5 12 13 20 29 32 31 36
-20 0 -0 -3 -18 -20 -20 1 -19 -20 -12 -5 -15 16 8 -16 -19 3 1 6 14 24 28 26 25 31 33

GFSFLT2_prec_radar_111.txt.gz
Reflectivity
25 31 16 1 -5 -7 29 23 20 23 22 31 25 8 -11 3 -14 -19 -20 16 18 28 25 35 27 22 -19
33 31 27 12 23 27 26 26 28 25 21 23 11 8 4 -9 -8 -20 -12 -5 8 19 19 16 14 25 14
17 26 27 21 23 24 25 35 33 34 37 26 29 9 9 10 12 18 11 11 10 14 12 27 18 30 22
-20 -16 12 13 28 24 27 28 31 30 30 32 22 24 20 21 18 23 22 16 19 16 16 24 27 26 4
-20 -20 -19 -20 -16 9 26 28 29 32 31 29 28 -1 -8 17 22 -3 -9 2 13 20 20 28 36 15 15
-20 -20 -20 -20 -15 -20 -9 -10 20 29 32 23 14 -8 -20 12 7 -10 4 14 21 27 31 33 30 18 5
-20 -20 -12 -20 -20 -20 -20 -8 -6 -15 12 -19 -14 -20 -20 -8 15 -12 -4 21 31 28 26 17 14 12 5
-20 -20 -20 -20 -20 -20 -20 -20 -20 -20 -17 -1 -15 -20 -20 -20 9 10 22 23 24 27 26 13 11 -12 10
-20 -20 -20 -20 -20 -20 -20 -20 -20 -20 -20 8 -20 -20 -20 -20 -20 -20 5 21 26 26 26 26 17 8 -17
-20 -20 -20 -20 -20 -20 -20 -9 -20 -19 -20 -19 -15 -20 -20 -20 -20 -20 -11 15 21 19 24 22 23 13 17
-20 -20 -20 -20 -20 -20 -20 -20 -17 -5 -20 -4 1 -7 -11 -20 -20 -20 -20 -6 15 23 19 19 19 13 5
0 -20 -20 -20 -20 -20 -20 -20 -20 -20 -20 -20 -4 -0 -6 5 -15 -20 -20 -1 -11 2 23 24 9 9 7
-16 -20 -20 -20 -20 -20 -20 -20 -20 -20 -20 -20 -20 -20 -13 4 18 -0 -19 -3 4 -3 -1 16 19 5 -17
14 -5 -20 -20 -20 -11 -20 -20 -20 -20 -19 -18 -4 -8 -11 0 15 19 -8 -20 -4 5 2 2 20 18 7
-19 -1 -4 -20 -20 -20 -3 -20 -13 -20 -20 -8 -10 -11 10 8 14 21 8 2 -14 -3 5 5 4 8 4
-20 -20 -20 -20 -18 -20 6 6 -12 -20 -20 -19 -6 -20 -15 10 23 17 4 -7 9 11 -9 4 5 13 11
-20 -20 -20 -20 -19 -20 -20 -20 -20 -20 -19 -20 -17 0 -10 -17 -4 7 9 -2 -8 1 16 12 6 -0 12